Location: Rometta
(44.2000°N, 10.0500°E)
Time: 22:13:20
(UTC+00:00)

SL-24 R/B - Pass Details

Date: 20 January 2021
Orbit: 625 x 1075 km, 98.0° (Epoch: 04 March)

Event Time Altitude Azimuth Distance (km) Brightness Sun altitude
Rises 16:37:06 0° 159° (SSE) 2,896 7.5 -4.7°
Reaches altitude 10° 16:39:14 10° 157° (SSE) 2,001 6.7 -5.0°
Maximum altitude 16:43:31 70° 74° (ENE) 690 4.1 -5.7°
Drops below altitude 10° 16:48:05 10° 351° (N) 2,137 6.7 -6.5°
Sets 16:50:26 0° 350° (N) 3,113 7.5 -6.9°
